TimeEDT,TemperatureF,Dew PointF,Humidity,Sea Level PressureIn,VisibilityMPH,Wind Direction,Wind SpeedMPH,Gust SpeedMPH,PrecipitationIn,Events,Conditions,WindDirDegrees,DateUTC
12:51 AM,55.0,42.1,62,29.83,10.0,Calm,Calm,-,N/A,,Partly Cloudy,0,2011-10-18 04:51:00
1:51 AM,52.0,43.0,71,29.83,10.0,Calm,Calm,-,N/A,,Clear,0,2011-10-18 05:51:00
2:51 AM,52.0,44.1,74,29.83,10.0,Calm,Calm,-,N/A,,Clear,0,2011-10-18 06:51:00
3:51 AM,51.1,42.1,71,29.82,10.0,SSE,3.5,-,N/A,,Clear,150,2011-10-18 07:51:00
4:51 AM,52.0,42.1,69,29.81,10.0,North,3.5,-,N/A,,Mostly Cloudy,360,2011-10-18 08:51:00
5:51 AM,48.9,42.1,77,29.83,10.0,Calm,Calm,-,N/A,,Clear,0,2011-10-18 09:51:00
6:51 AM,50.0,41.0,71,29.86,10.0,Calm,Calm,-,N/A,,Clear,0,2011-10-18 10:51:00
7:51 AM,53.1,46.9,80,29.83,10.0,South,4.6,-,N/A,,Clear,190,2011-10-18 11:51:00
8:51 AM,61.0,53.1,75,29.83,10.0,South,5.8,-,N/A,,Clear,190,2011-10-18 12:51:00
9:51 AM,64.9,54.0,68,29.82,10.0,SSW,5.8,-,N/A,,Clear,210,2011-10-18 13:51:00
10:51 AM,68.0,53.1,59,29.81,10.0,SW,6.9,-,N/A,,Clear,230,2011-10-18 14:51:00
11:51 AM,70.0,52.0,53,29.79,10.0,SW,9.2,-,N/A,,Clear,220,2011-10-18 15:51:00
12:51 PM,71.1,51.1,49,29.78,10.0,Variable,6.9,-,N/A,,Clear,0,2011-10-18 16:51:00
1:51 PM,73.0,50.0,44,29.75,10.0,West,8.1,-,N/A,,Clear,260,2011-10-18 17:51:00
2:51 PM,75.0,48.0,38,29.71,10.0,Variable,6.9,-,N/A,,Clear,0,2011-10-18 18:51:00
3:51 PM,73.0,50.0,44,29.70,10.0,Variable,4.6,-,N/A,,Scattered Clouds,0,2011-10-18 19:51:00
4:51 PM,73.0,50.0,44,29.68,10.0,SE,8.1,-,N/A,,Partly Cloudy,140,2011-10-18 20:51:00
5:51 PM,71.1,50.0,47,29.67,10.0,ENE,3.5,-,0.00,,Mostly Cloudy,60,2011-10-18 21:51:00
6:33 PM,68.0,53.6,60,29.71,10.0,North,4.6,-,N/A,Thunderstorm,Overcast,10,2011-10-18 22:33:00
6:47 PM,66.2,51.8,60,29.72,10.0,Calm,Calm,-,N/A,Thunderstorm,Scattered Clouds,0,2011-10-18 22:47:00
6:48 PM,66.9,52.0,59,29.67,10.0,Calm,Calm,-,N/A,Thunderstorm,Scattered Clouds,0,2011-10-18 22:48:00
7:18 PM,69.8,46.4,43,29.73,10.0,South,5.8,-,N/A,,Partly Cloudy,180,2011-10-18 23:18:00
7:51 PM,63.0,54.0,72,29.67,10.0,Calm,Calm,-,N/A,,Clear,0,2011-10-18 23:51:00
8:51 PM,68.0,46.9,47,29.64,10.0,SSE,5.8,-,N/A,,Clear,160,2011-10-19 00:51:00
9:51 PM,68.0,48.9,50,29.59,10.0,SSE,11.5,23.0,N/A,,Clear,150,2011-10-19 01:51:00
10:51 PM,66.0,46.0,48,29.58,10.0,SSE,15.0,24.2,N/A,,Clear,160,2011-10-19 02:51:00
11:51 PM,63.0,50.0,63,29.57,10.0,SE,13.8,19.6,N/A,,Clear,140,2011-10-19 03:51:00